Change the Weather History Date:

Wednesday, March 26, 2014

  Actual Average Record
Temperature  
Mean Temperature 29 °F -  
Max Temperature 44 °F 45 °F 78 °F (2007)
Min Temperature 14 °F 24 °F -9 °F (1965)
Degree Days  
Heating Degree Days 36    
Moisture  
Dew Point 19 °F    
Average Humidity 64    
Maximum Humidity 86    
Minimum Humidity 42    
Precipitation  
Precipitation 0.00 in - - ()
Sea Level Pressure  
Sea Level Pressure 29.81 in    
Wind  
Wind Speed 9 mph (SE)    
Max Wind Speed 20 mph    
Max Gust Speed 30 mph    
Visibility 10 miles    
Events      
Averages and records for this station are not official NWS values.
T = Trace of Precipitation, MM = Missing Value Source: NWS Daily Summary

Daily Weather History Graph

Daily Weather History Graph

Search for Another Location

Airport or City:

Trip Planner

Search our weather history database for the weather conditions in past years. The results will help you decide how hot, cold, wet, or windy it might be!

Date:

Astronomy

Mar. 26, 2014 Rise Set
Actual Time 7:09 AM CDT 7:38 PM CDT
Civil Twilight 6:40 AM CDT 8:07 PM CDT
Nautical Twilight 6:05 AM CDT 8:42 PM CDT
Astronomical Twilight 5:29 AM CDT 9:18 PM CDT
Moon 4:30 AM CDT (3/26) 3:07 PM CDT (3/26)
Length of Visible Light 13h 27m
Length of Day
12h 28m
Waning Crescent, 21% of the Moon is Illuminated
Mar 26
Waning Crescent
Mar 30
New
Apr 7
First Quarter
Apr 15
Full
Apr 22
Last Quarter

Hourly Weather History & Observations

Time (CDT) Temp. Windchill Dew Point Humidity Pressure Visibility Wind Dir Wind Speed Gust Speed Precip Events Conditions
12:12 AM 17.6 °F 12.3 °F 8.6 °F 68% 30.12 in 10.0 mi ESE 3.5 mph - N/A   Clear
12:33 AM 15.8 °F 7.2 °F 8.6 °F 73% 30.11 in 10.0 mi ESE 5.8 mph - N/A   Clear
12:53 AM 15.8 °F 8.6 °F 8.6 °F 73% 30.11 in 10.0 mi ESE 4.6 mph - N/A   Clear
1:12 AM 15.8 °F 10.2 °F 8.6 °F 73% 30.11 in 10.0 mi SE 3.5 mph - N/A   Clear
1:33 AM 15.8 °F 7.2 °F 8.6 °F 73% 30.10 in 10.0 mi SE 5.8 mph - N/A   Clear
1:53 AM 15.8 °F 8.6 °F 8.6 °F 73% 30.10 in 10.0 mi SE 4.6 mph - N/A   Clear
2:12 AM 15.8 °F 7.2 °F 8.6 °F 73% 30.09 in 10.0 mi SE 5.8 mph - N/A   Clear
2:33 AM 15.8 °F 8.6 °F 10.4 °F 79% 30.09 in 10.0 mi SE 4.6 mph - N/A   Clear
2:53 AM 15.8 °F 8.6 °F 10.4 °F 79% 30.08 in 10.0 mi ESE 4.6 mph - N/A   Clear
3:13 AM 14.0 °F 6.5 °F 10.4 °F 86% 30.07 in 10.0 mi SE 4.6 mph - N/A   Clear
3:33 AM 15.8 °F 10.2 °F 12.2 °F 86% 30.08 in 10.0 mi SSE 3.5 mph - N/A   Clear
3:53 AM 14.0 °F - 10.4 °F 86% 30.08 in 10.0 mi Calm Calm - N/A   Clear
4:12 AM 15.8 °F 8.6 °F 12.2 °F 86% 30.07 in 10.0 mi SSE 4.6 mph - N/A   Clear
4:33 AM 15.8 °F 8.6 °F 12.2 °F 86% 30.06 in 10.0 mi SSE 4.6 mph - N/A   Clear
4:53 AM 17.6 °F 10.7 °F 12.2 °F 79% 30.05 in 10.0 mi SSE 4.6 mph - N/A   Mostly Cloudy
5:13 AM 17.6 °F 10.7 °F 14.0 °F 86% 30.05 in 10.0 mi SSE 4.6 mph - N/A   Overcast
5:33 AM 17.6 °F 10.7 °F 14.0 °F 86% 30.04 in 10.0 mi SSE 4.6 mph - N/A   Overcast
5:53 AM 19.4 °F 12.8 °F 15.8 °F 86% 30.03 in 10.0 mi SSE 4.6 mph - N/A   Overcast
6:13 AM 19.4 °F 11.5 °F 15.8 °F 86% 30.03 in 10.0 mi SSE 5.8 mph - N/A   Overcast
6:33 AM 19.4 °F 12.8 °F 15.8 °F 86% 30.02 in 10.0 mi SSE 4.6 mph - N/A   Overcast
6:53 AM 19.4 °F 10.4 °F 15.8 °F 86% 30.02 in 10.0 mi SE 6.9 mph - N/A   Overcast
7:13 AM 21.2 °F 12.6 °F 15.8 °F 80% 30.02 in 10.0 mi SE 6.9 mph - N/A   Overcast
7:32 AM 21.2 °F 11.7 °F 15.8 °F 80% 30.01 in 10.0 mi SE 8.1 mph - N/A   Overcast
7:53 AM 21.2 °F 11.7 °F 15.8 °F 80% 30.00 in 10.0 mi SE 8.1 mph - N/A   Overcast
8:13 AM 21.2 °F 9.5 °F 17.6 °F 86% 29.98 in 10.0 mi SE 11.5 mph - N/A   Overcast
8:32 AM 23.0 °F 11.7 °F 15.8 °F 74% 29.97 in 10.0 mi SE 11.5 mph - N/A   Overcast
8:53 AM 24.8 °F 15.3 °F 15.8 °F 69% 29.96 in 10.0 mi SE 9.2 mph 16.1 mph N/A   Scattered Clouds
9:12 AM 24.8 °F 14.6 °F 15.8 °F 69% 29.94 in 10.0 mi SE 10.4 mph 18.4 mph N/A   Clear
9:33 AM 26.6 °F 15.7 °F 15.8 °F 64% 29.93 in 10.0 mi SE 12.7 mph 19.6 mph N/A   Clear
9:53 AM 26.6 °F 14.7 °F 15.8 °F 64% 29.93 in 10.0 mi SE 15.0 mph 20.7 mph N/A   Clear
10:12 AM 28.4 °F 18.5 °F 14.0 °F 55% 29.92 in 10.0 mi SE 11.5 mph 19.6 mph N/A   Clear
10:33 AM 30.2 °F 20.8 °F 15.8 °F 55% 29.91 in 10.0 mi SE 11.5 mph 19.6 mph N/A   Clear
10:52 AM 30.2 °F 18.9 °F 14.0 °F 51% 29.90 in 10.0 mi SE 16.1 mph 21.9 mph N/A   Clear
11:13 AM 32.0 °F 20.1 °F 15.8 °F 51% 29.88 in 10.0 mi SE 19.6 mph 23.0 mph N/A   Clear
11:33 AM 33.8 °F 23.5 °F 15.8 °F 48% 29.85 in 10.0 mi SE 16.1 mph 26.5 mph N/A   Clear
11:52 AM 33.8 °F 23.5 °F 15.8 °F 48% 29.83 in 10.0 mi SE 16.1 mph 27.6 mph N/A   Clear
12:13 PM 35.6 °F 24.8 °F 15.8 °F 44% 29.81 in 10.0 mi SE 19.6 mph 28.8 mph N/A   Clear
12:33 PM 37.4 °F 27.5 °F 17.6 °F 45% 29.80 in 10.0 mi SSE 18.4 mph 28.8 mph N/A   Clear
12:52 PM 37.4 °F 27.5 °F 17.6 °F 45% 29.78 in 10.0 mi SSE 18.4 mph 27.6 mph N/A   Clear
1:13 PM 37.4 °F 28.9 °F 17.6 °F 45% 29.77 in 10.0 mi SSE 13.8 mph 25.3 mph N/A   Clear
1:33 PM 39.2 °F 30.5 °F 19.4 °F 45% 29.76 in 10.0 mi SSE 16.1 mph 27.6 mph N/A   Clear
1:52 PM 41.0 °F 33.5 °F 21.2 °F 45% 29.73 in 10.0 mi SSE 13.8 mph 21.9 mph N/A   Clear
2:13 PM 41.0 °F 32.2 °F 21.2 °F 45% 29.71 in 10.0 mi SSE 18.4 mph 27.6 mph N/A   Clear
2:33 PM 42.8 °F 35.1 °F 21.2 °F 42% 29.70 in 10.0 mi SSE 16.1 mph 26.5 mph N/A   Clear
2:52 PM 42.8 °F 35.1 °F 23.0 °F 46% 29.69 in 10.0 mi SSE 16.1 mph 28.8 mph N/A   Clear
3:13 PM 44.6 °F 37.8 °F 24.8 °F 46% 29.68 in 10.0 mi SSE 15.0 mph 28.8 mph N/A   Clear
3:33 PM 44.6 °F 38.4 °F 24.8 °F 46% 29.67 in 10.0 mi SSE 12.7 mph 25.3 mph N/A   Clear
3:52 PM 44.6 °F 38.1 °F 24.8 °F 46% 29.66 in 10.0 mi SE 13.8 mph 24.2 mph N/A   Clear
4:13 PM 44.6 °F 37.4 °F 26.6 °F 49% 29.65 in 10.0 mi SSE 16.1 mph 24.2 mph N/A   Clear
4:33 PM 44.6 °F 37.2 °F 26.6 °F 49% 29.63 in 10.0 mi SSE 17.3 mph 24.2 mph N/A   Clear
4:52 PM 44.6 °F 37.2 °F 26.6 °F 49% 29.62 in 10.0 mi SE 17.3 mph 27.6 mph N/A   Clear
5:13 PM 44.6 °F 37.4 °F 26.6 °F 49% 29.62 in 10.0 mi SE 16.1 mph 28.8 mph N/A   Clear
5:32 PM 44.6 °F 36.9 °F 26.6 °F 49% 29.61 in 10.0 mi SE 18.4 mph 24.2 mph N/A   Clear
5:53 PM 44.6 °F 36.6 °F 28.4 °F 53% 29.60 in 10.0 mi SE 19.6 mph 26.5 mph N/A   Clear
6:13 PM 44.6 °F 37.2 °F 28.4 °F 53% 29.59 in 10.0 mi SE 17.3 mph 26.5 mph N/A   Clear
6:32 PM 44.6 °F 36.9 °F 28.4 °F 53% 29.58 in 10.0 mi SE 18.4 mph 26.5 mph N/A   Clear
6:53 PM 42.8 °F 34.8 °F 28.4 °F 57% 29.57 in 10.0 mi SE 17.3 mph 29.9 mph N/A   Clear
7:13 PM 41.0 °F 32.2 °F 28.4 °F 61% 29.56 in 10.0 mi SE 18.4 mph 25.3 mph N/A   Clear
7:32 PM 39.2 °F 30.2 °F 28.4 °F 65% 29.55 in 10.0 mi SE 17.3 mph 23.0 mph N/A   Clear
7:53 PM 39.2 °F 30.2 °F 28.4 °F 65% 29.54 in 10.0 mi SE 17.3 mph 21.9 mph N/A   Clear
8:13 PM 39.2 °F 29.8 °F 28.4 °F 65% 29.53 in 10.0 mi SE 18.4 mph - N/A   Clear
8:32 PM 37.4 °F 27.8 °F 28.4 °F 70% 29.52 in 10.0 mi ESE 17.3 mph 23.0 mph N/A   Clear
8:53 PM 37.4 °F 28.2 °F 28.4 °F 70% 29.52 in 10.0 mi ESE 16.1 mph 23.0 mph N/A   Clear
9:13 PM 37.4 °F 28.2 °F 28.4 °F 70% 29.52 in 10.0 mi ESE 16.1 mph - N/A   Clear
9:32 PM 37.4 °F 28.2 °F 28.4 °F 70% 29.51 in 10.0 mi ESE 16.1 mph - N/A   Clear
9:53 PM 37.4 °F 29.3 °F 26.6 °F 65% 29.52 in 10.0 mi SE 12.7 mph - N/A   Clear
10:13 PM 39.2 °F 30.8 °F 26.6 °F 61% 29.51 in 10.0 mi SE 15.0 mph 23.0 mph N/A   Clear
10:32 PM 39.2 °F 31.2 °F 28.4 °F 65% 29.50 in 10.0 mi SE 13.8 mph 18.4 mph N/A   Clear
10:53 PM 41.0 °F 34.7 °F 28.4 °F 61% 29.50 in 10.0 mi SE 10.4 mph 18.4 mph N/A   Scattered Clouds
11:13 PM 42.8 °F 36.2 °F 28.4 °F 57% 29.50 in 10.0 mi SE 12.7 mph 21.9 mph N/A   Overcast
11:32 PM 41.0 °F 34.3 °F 28.4 °F 61% 29.49 in 10.0 mi SSE 11.5 mph 19.6 mph N/A   Overcast
11:53 PM 42.8 °F 37.5 °F 30.2 °F 61% 29.49 in 10.0 mi SSE 9.2 mph 18.4 mph N/A   Overcast